Radioactive Concentration measured by Seawater Radiation Monitor near Fukushima Daiichi Nuclear Power Station
Date,Time,Cs137(Bq/L),Cs134(Bq/L),Total β(Bq/L)
2017/06/25,00:00,0.67,0.038,ND
2017/06/25,00:10,0.70,0.037,ND
2017/06/25,00:20,0.70,0.030,ND
2017/06/25,00:30,0.68,0.045,ND
2017/06/25,00:40,0.70,0.033,ND
2017/06/25,00:50,0.66,0.036,ND
2017/06/25,01:00,0.64,0.042,ND
2017/06/25,01:10,0.62,0.049,ND
2017/06/25,01:20,0.62,0.043,ND
2017/06/25,01:30,0.70,0.030,ND
2017/06/25,01:40,0.70,0.033,ND
2017/06/25,01:50,0.72,0.028,ND
2017/06/25,02:00,0.81,ND,ND
2017/06/25,02:10,0.70,0.025,ND
2017/06/25,02:20,0.70,0.031,ND
2017/06/25,02:30,0.67,0.037,ND
2017/06/25,02:40,0.68,0.026,ND
2017/06/25,02:50,0.66,0.030,ND
2017/06/25,03:00,0.62,0.040,ND
2017/06/25,03:10,0.68,0.029,ND
2017/06/25,03:20,0.70,0.029,ND
2017/06/25,03:30,0.66,ND,ND
2017/06/25,03:40,0.62,0.038,ND
2017/06/25,03:50,0.65,0.027,ND
2017/06/25,04:00,0.72,ND,ND
2017/06/25,04:10,0.69,0.027,ND
2017/06/25,04:20,0.68,0.025,ND
2017/06/25,04:30,0.66,0.030,ND
2017/06/25,04:40,0.65,0.027,ND
2017/06/25,04:50,0.61,0.032,ND
2017/06/25,05:00,0.68,0.032,ND
2017/06/25,05:10,0.67,0.037,ND
2017/06/25,05:20,0.67,0.032,ND
2017/06/25,05:30,0.63,0.032,ND
2017/06/25,05:40,0.69,0.032,ND
2017/06/25,05:50,0.61,0.031,ND
2017/06/25,06:00,0.67,ND,ND
2017/06/25,06:10,0.69,ND,8.9
2017/06/25,06:20,0.65,0.026,ND
2017/06/25,06:30,0.69,ND,ND
2017/06/25,06:40,0.71,0.026,ND
2017/06/25,06:50,0.70,0.028,ND
2017/06/25,07:00,0.70,0.040,ND
2017/06/25,07:10,0.70,0.045,ND
2017/06/25,07:20,0.73,0.043,ND
2017/06/25,07:30,0.74,0.050,ND
2017/06/25,07:40,0.69,0.046,ND
2017/06/25,07:50,0.73,0.047,ND
2017/06/25,08:00,0.71,0.037,ND
2017/06/25,08:10,0.68,0.041,ND
2017/06/25,08:20,0.67,0.040,ND
2017/06/25,08:30,0.66,0.049,ND
2017/06/25,08:40,0.66,0.049,ND
2017/06/25,08:50,0.68,0.041,ND
2017/06/25,09:00,0.66,0.051,ND
2017/06/25,09:10,0.69,0.046,ND
2017/06/25,09:20,0.73,0.050,ND
2017/06/25,09:30,0.73,0.048,ND
2017/06/25,09:40,0.73,0.053,ND
2017/06/25,09:50,0.72,0.065,8.9
2017/06/25,10:00,0.71,0.056,9.0
2017/06/25,10:10,0.71,0.054,ND
2017/06/25,10:20,0.72,0.050,ND
2017/06/25,10:30,0.70,0.056,ND
2017/06/25,10:40,0.73,0.048,ND
2017/06/25,10:50,0.74,0.046,ND
2017/06/25,11:00,0.73,0.046,ND
2017/06/25,11:10,0.75,0.048,ND
2017/06/25,11:20,0.77,0.048,ND
2017/06/25,11:30,0.80,0.037,ND
2017/06/25,11:40,0.83,0.042,ND
2017/06/25,11:50,0.77,0.046,ND
2017/06/25,12:00,0.78,0.053,ND
2017/06/25,12:10,0.77,0.059,ND
2017/06/25,12:20,0.77,0.054,ND
2017/06/25,12:30,0.77,0.058,ND
2017/06/25,12:40,0.81,0.055,ND
2017/06/25,12:50,0.84,0.057,ND
2017/06/25,13:00,0.83,0.065,ND
2017/06/25,13:10,0.85,0.046,ND
2017/06/25,13:20,0.86,0.036,ND
2017/06/25,13:30,0.85,0.037,ND
2017/06/25,13:40,0.81,0.037,ND
2017/06/25,13:50,0.78,0.035,ND
2017/06/25,14:00,0.83,0.045,ND
2017/06/25,14:10,0.76,0.043,ND
2017/06/25,14:20,0.72,0.060,ND
2017/06/25,14:30,0.72,0.053,ND
2017/06/25,14:40,0.74,0.051,ND
2017/06/25,14:50,0.75,0.051,ND
2017/06/25,15:00,0.74,0.046,ND
2017/06/25,15:10,0.81,0.042,ND
2017/06/25,15:20,0.85,0.031,9.0
2017/06/25,15:30,0.81,0.037,ND
2017/06/25,15:40,0.80,0.041,ND
2017/06/25,15:50,0.82,0.037,ND
2017/06/25,16:00,0.80,0.045,ND
2017/06/25,16:10,0.77,0.050,ND
2017/06/25,16:20,0.81,0.050,ND
2017/06/25,16:30,0.75,0.052,ND
2017/06/25,16:40,0.72,0.046,8.9
2017/06/25,16:50,0.74,0.037,ND
2017/06/25,17:00,0.76,0.029,ND
2017/06/25,17:10,0.73,0.032,ND
2017/06/25,17:20,0.69,0.039,ND
2017/06/25,17:30,0.71,0.043,ND
2017/06/25,17:40,0.73,0.047,ND
2017/06/25,17:50,0.73,0.052,ND
2017/06/25,18:00,0.68,0.053,ND
2017/06/25,18:10,0.69,0.049,ND
2017/06/25,18:20,0.71,0.038,ND
2017/06/25,18:30,0.73,0.038,ND
2017/06/25,18:40,0.73,0.037,ND
2017/06/25,18:50,0.73,0.036,ND
2017/06/25,19:00,0.71,0.050,ND
2017/06/25,19:10,0.73,0.050,ND
2017/06/25,19:20,0.75,0.053,ND
2017/06/25,19:30,0.78,0.049,ND
2017/06/25,19:40,0.79,0.051,ND
2017/06/25,19:50,0.82,0.046,ND
2017/06/25,20:00,0.83,0.043,ND
2017/06/25,20:10,0.83,0.044,ND
2017/06/25,20:20,0.81,0.048,ND
2017/06/25,20:30,0.78,0.052,ND
2017/06/25,20:40,0.83,0.050,ND
2017/06/25,20:50,0.73,0.049,ND
2017/06/25,21:00,0.76,0.051,ND
2017/06/25,21:10,0.68,0.050,ND
2017/06/25,21:20,0.71,0.043,ND
2017/06/25,21:30,0.66,0.031,ND
2017/06/25,21:40,0.65,0.033,ND
2017/06/25,21:50,0.67,0.029,ND
2017/06/25,22:00,0.72,ND,ND
2017/06/25,22:10,0.67,0.025,ND
2017/06/25,22:20,0.68,0.025,ND
2017/06/25,22:30,0.61,0.036,ND
2017/06/25,22:40,0.67,ND,ND
2017/06/25,22:50,0.63,0.035,ND
2017/06/25,23:00,0.67,0.033,ND
2017/06/25,23:10,0.70,0.032,ND
2017/06/25,23:20,0.73,0.032,ND
2017/06/25,23:30,0.76,0.032,ND
2017/06/25,23:40,0.74,0.041,ND
2017/06/25,23:50,0.77,0.042,ND
